Weather History for Athens, OH

Change the Weather History Date:

Sunday, April 28, 2013

  Actual Average (KPKB) Record (KPKB)
Temperature  
Mean Temperature 60 °F 58 °F  
Max Temperature 67 °F 70 °F 91 °F (1986)
Min Temperature 53 °F 46 °F 27 °F (1934)
Degree Days  
Heating Degree Days 5 8  
Month to date heating degree days 330  
Since 1 July heating degree days 4791  
Cooling Degree Days 0 1  
Month to date cooling degree days 18  
Year to date cooling degree days 21  
Growing Degree Days 10 (Base 50)    
Moisture  
Dew Point 51 °F    
Average Humidity 73    
Maximum Humidity 94    
Minimum Humidity 56    
Precipitation  
Precipitation 0.00 in 0.11 in 1.43 in (2002)
Month to date precipitation 3.05  
Year to date precipitation 12.43  
Snow  
Snow 0.00 in - - ()
Month to date snowfall  
Since 1 July snowfall  
Since 1 September snowfall  
Snow Depth -    
Sea Level Pressure  
Sea Level Pressure 29.97 in    
Wind  
Wind Speed 6 mph (SSE)    
Max Wind Speed 14 mph    
Max Gust Speed 21 mph    
Visibility 9 miles    
Events Rain    
T = Trace of Precipitation, MM = Missing Value Source: NWS Daily Summary

Daily Weather History Graph

Daily Weather History Graph

Search for Another Location

Airport:

Trip Planner

Search our weather history database for the weather conditions in past years. The results will help you decide how hot, cold, wet, or windy it might be!

Date:

Astronomy

Apr. 28, 2013 Rise Set
Actual Time 6:33 AM EDT 8:19 PM EDT
Civil Twilight 6:05 AM EDT 8:48 PM EDT
Nautical Twilight 5:30 AM EDT 9:23 PM EDT
Astronomical Twilight 4:53 AM EDT 10:00 PM EDT
Moon 11:47 PM EDT (4/28) 8:50 AM EDT (4/28)
Length of Visible Light 14h 42m
Length of Day
13h 45m
Waning Gibbous, 89% of the Moon is Illuminated
Apr 28
Waning Gibbous
May 2
Last Quarter
May 9
New
May 18
First Quarter
May 25
Full

Hourly Weather History & Observations

Time (EDT) Temp. Dew Point Humidity Pressure Visibility Wind Dir Wind Speed Gust Speed Precip Events Conditions
12:15 AM 58.1 °F 47.3 °F 67% 30.12 in 10.0 mi ESE 3.5 mph - N/A   Overcast
12:35 AM 58.5 °F 46.8 °F 65% 30.12 in 10.0 mi SE 3.5 mph - N/A   Overcast
12:55 AM 58.5 °F 47.5 °F 67% 30.11 in 10.0 mi SE 4.6 mph - N/A Rain Light Rain
1:15 AM 57.9 °F 48.0 °F 70% 30.11 in 10.0 mi SE 3.5 mph - N/A Rain Light Rain
1:35 AM 57.7 °F 47.5 °F 69% 30.09 in 10.0 mi SE 3.5 mph - N/A   Mostly Cloudy
1:55 AM 57.4 °F 47.3 °F 69% 30.09 in 10.0 mi SE 4.6 mph - N/A   Scattered Clouds
2:15 AM 57.4 °F 47.5 °F 70% 30.07 in 10.0 mi SE 3.5 mph - N/A   Clear
2:35 AM 57.2 °F 47.3 °F 69% 30.06 in 10.0 mi ESE 5.8 mph - N/A   Clear
2:55 AM 57.2 °F 47.5 °F 70% 30.05 in 10.0 mi SE 4.6 mph - N/A   Scattered Clouds
3:15 AM 57.2 °F 47.7 °F 70% 30.04 in 10.0 mi SE 4.6 mph - N/A   Overcast
3:35 AM 57.2 °F 48.2 °F 72% 30.03 in 10.0 mi SE 6.9 mph - N/A   Overcast
3:55 AM 56.7 °F 48.2 °F 73% 30.03 in 10.0 mi SE 4.6 mph - N/A   Overcast
4:35 AM 56.5 °F 48.4 °F 74% 30.03 in 10.0 mi Calm Calm - N/A   Overcast
4:55 AM 56.5 °F 48.6 °F 75% 30.02 in 10.0 mi SE 3.5 mph - N/A Rain Rain
5:15 AM 54.9 °F 50.2 °F 84% 30.02 in 5.0 mi SSE 6.9 mph - N/A Rain Rain
5:35 AM 53.8 °F 50.9 °F 90% 30.01 in 7.0 mi SE 3.5 mph - N/A Rain Rain
5:55 AM 53.6 °F 51.1 °F 91% 30.01 in 7.0 mi SE 4.6 mph - N/A Rain Light Rain
6:15 AM 53.8 °F 51.8 °F 93% 30.00 in 7.0 mi SSE 6.9 mph - N/A Rain Rain
6:35 AM 54.0 °F 52.0 °F 93% 30.00 in 7.0 mi SSE 6.9 mph - N/A Rain Rain
6:55 AM 54.1 °F 52.2 °F 93% 29.99 in 7.0 mi SSE 8.1 mph - N/A Rain Rain
7:15 AM 54.3 °F 52.2 °F 92% 30.00 in 10.0 mi SSE 8.1 mph - N/A Rain Rain
7:35 AM 54.5 °F 52.3 °F 92% 30.01 in 7.0 mi South 6.9 mph - N/A Rain Rain
7:55 AM 54.5 °F 52.7 °F 94% 30.01 in 5.0 mi SSE 8.1 mph - N/A Rain Rain
8:15 AM 54.5 °F 52.7 °F 94% 30.01 in 5.0 mi SSE 8.1 mph - N/A Rain Rain
8:35 AM 54.5 °F 52.7 °F 94% 30.01 in 7.0 mi SSE 4.6 mph - N/A   Drizzle
8:55 AM 54.7 °F 52.7 °F 93% 30.01 in 10.0 mi SE 8.1 mph 16.1 mph N/A   Overcast
9:15 AM 55.2 °F 52.7 °F 91% 30.00 in 10.0 mi SE 6.9 mph - N/A   Overcast
9:35 AM 55.9 °F 53.1 °F 90% 29.99 in 10.0 mi SSE 5.8 mph - N/A   Overcast
9:55 AM 56.3 °F 52.9 °F 88% 29.99 in 10.0 mi SSE 6.9 mph - N/A   Overcast
10:15 AM 56.7 °F 53.1 °F 88% 29.99 in 10.0 mi SSE 8.1 mph - N/A   Overcast
10:35 AM 57.2 °F 53.2 °F 87% 30.00 in 10.0 mi SSE 5.8 mph - N/A   Overcast
10:55 AM 57.6 °F 53.4 °F 86% 29.99 in 10.0 mi SSE 4.6 mph - N/A   Overcast
11:15 AM 58.6 °F 53.1 °F 82% 29.99 in 10.0 mi South 9.2 mph 16.1 mph N/A   Overcast
11:35 AM 59.4 °F 53.4 °F 81% 29.99 in 10.0 mi South 6.9 mph - N/A   Overcast
11:55 AM 60.8 °F 52.9 °F 75% 29.99 in 10.0 mi South 11.5 mph 17.3 mph N/A   Overcast
12:15 PM 62.1 °F 52.7 °F 71% 29.99 in 10.0 mi South 12.7 mph 18.4 mph N/A   Mostly Cloudy
12:35 PM 62.8 °F 52.2 °F 68% 29.98 in 10.0 mi SSW 13.8 mph 18.4 mph N/A   Overcast
12:55 PM 61.7 °F 52.0 °F 70% 29.97 in 10.0 mi South 9.2 mph 18.4 mph N/A Rain Rain
1:15 PM 59.2 °F 53.4 °F 81% 29.96 in 5.0 mi SE 4.6 mph - N/A Rain Heavy Rain
1:35 PM 60.6 °F 53.4 °F 77% 29.96 in 10.0 mi SE 4.6 mph - N/A   Overcast
1:55 PM 62.8 °F 55.0 °F 76% 29.94 in 10.0 mi SSE 5.8 mph - N/A   Mostly Cloudy
2:15 PM 63.0 °F 52.2 °F 68% 29.94 in 10.0 mi SSE 12.7 mph 17.3 mph N/A   Overcast
2:35 PM 64.6 °F 52.0 °F 64% 29.93 in 10.0 mi South 12.7 mph 16.1 mph N/A   Mostly Cloudy
2:55 PM 65.3 °F 51.6 °F 61% 29.92 in 10.0 mi SSE 9.2 mph 18.4 mph N/A   Mostly Cloudy
3:15 PM 65.1 °F 51.4 °F 61% 29.92 in 10.0 mi South 6.9 mph 18.4 mph N/A   Overcast
3:35 PM 64.6 °F 50.4 °F 60% 29.92 in 10.0 mi South 12.7 mph 19.6 mph N/A   Overcast
3:55 PM 64.6 °F 51.1 °F 62% 29.91 in 10.0 mi South 8.1 mph - N/A   Overcast
4:15 PM 64.8 °F 50.9 °F 61% 29.90 in 10.0 mi SSE 4.6 mph - N/A   Overcast
4:35 PM 64.8 °F 51.1 °F 61% 29.89 in 10.0 mi South 5.8 mph - N/A   Overcast
4:55 PM 64.8 °F 50.9 °F 61% 29.89 in 10.0 mi SSE 6.9 mph - N/A   Overcast
5:15 PM 64.9 °F 50.9 °F 60% 29.88 in 10.0 mi SSE 6.9 mph - N/A   Overcast
5:35 PM 65.3 °F 50.9 °F 60% 29.88 in 10.0 mi SSE 5.8 mph - N/A   Overcast
5:55 PM 65.5 °F 51.3 °F 60% 29.88 in 10.0 mi SSE 8.1 mph - N/A   Mostly Cloudy
6:15 PM 65.8 °F 51.6 °F 60% 29.87 in 10.0 mi SSE 6.9 mph - N/A   Scattered Clouds
6:35 PM 67.5 °F 51.4 °F 56% 29.87 in 10.0 mi SSE 12.7 mph 17.3 mph N/A   Clear
6:55 PM 66.0 °F 50.9 °F 58% 29.88 in 10.0 mi South 9.2 mph 20.7 mph N/A   Clear
7:15 PM 65.3 °F 50.9 °F 60% 29.88 in 10.0 mi South 5.8 mph - N/A   Scattered Clouds
7:35 PM 65.3 °F 50.4 °F 58% 29.88 in 10.0 mi South 10.4 mph 18.4 mph N/A   Mostly Cloudy
7:55 PM 64.8 °F 50.2 °F 59% 29.88 in 10.0 mi South 10.4 mph 17.3 mph N/A   Mostly Cloudy
8:15 PM 64.4 °F 50.2 °F 60% 29.88 in 10.0 mi South 10.4 mph 16.1 mph N/A   Mostly Cloudy
8:35 PM 63.7 °F 50.0 °F 61% 29.88 in 10.0 mi South 11.5 mph - N/A   Overcast
8:55 PM 63.3 °F 49.8 °F 61% 29.89 in 10.0 mi South 5.8 mph 17.3 mph N/A   Overcast
9:15 PM 62.8 °F 50.0 °F 63% 29.89 in 10.0 mi South 8.1 mph - N/A   Overcast
9:35 PM 62.1 °F 50.9 °F 67% 29.90 in 10.0 mi South 5.8 mph - N/A Rain Light Rain
9:55 PM 62.1 °F 50.0 °F 65% 29.91 in 10.0 mi South 4.6 mph - N/A   Overcast
10:15 PM 62.1 °F 50.0 °F 65% 29.91 in 10.0 mi South 5.8 mph - N/A   Overcast
10:35 PM 61.7 °F 50.0 °F 65% 29.92 in 10.0 mi SSW 3.5 mph - N/A   Overcast
10:55 PM 61.0 °F 50.5 °F 68% 29.93 in 10.0 mi West 6.9 mph - N/A   Overcast
11:15 PM 60.4 °F 50.5 °F 70% 29.92 in 10.0 mi Calm Calm - N/A   Overcast
11:35 PM 60.8 °F 50.7 °F 69% 29.92 in 10.0 mi Calm Calm - N/A   Overcast
11:55 PM 60.1 °F 50.9 °F 72% 29.92 in 10.0 mi Calm Calm - N/A   Overcast